Location: Dannhausen
(51.8650°N, 10.1026°E)
Time: 13:54:51
(UTC+00:00)

CZ-2C R/B - Pass Details

Date: 09 April 2020
Orbit: 639 x 705 km, 98.4° (Epoch: 26 May)

Event Time Altitude Azimuth Distance (km) Brightness Sun altitude
Rises 18:46:54 0° 20° (NNE) 3,088 7.2 -6.6°
Reaches altitude 10° 18:49:20 10° 29° (NNE) 2,157 6.3 -6.9°
Maximum altitude 18:53:42 37° 97° (E) 1,061 4.3 -7.6°
Drops below altitude 10° 18:57:59 10° 165° (SSE) 2,104 5.9 -8.2°
Sets 19:00:19 0° 174° (S) 3,002 6.8 -8.5°
